カタログに戻る

COSMOS 1275 DEB

運用中PO
NORAD 12654·DEBRIS·🇷🇺 Russia

打ち上げ Jun 4, 1981 から Plesetsk Cosmodrome

Loading…

次のパス (今後24時間)

TLE

最新Source: Space-Track

元期: Sep 14, 2026, 11:18 UTC

1 12654U 81053J   26257.47150615  .00000553  00000-0  30649-3 0  9994
2 12654  82.9834 150.3449 0045822 353.9043 125.1608 14.09114643300670

AllMySatでCOSMOS 1275 DEBをリアルタイム追跡

Download on the App Store